Location: Peebles
(55.6412°N, 3.1714°W)
Time: 15:37:59
(UTC+01:00)

Cosmos 1867 - Pass Details

Date: 26 September 2021
Orbit: 773 x 803 km, 65.0° (Epoch: 17 October)

Event Time Altitude Azimuth Distance (km) Brightness Sun altitude
Rises 19:49:31 0° 303° (WNW) 3,321 8.2 -7.7°
Reaches altitude 10° 19:52:07 10° 311° (NW) 2,390 7.1 -8.1°
Maximum altitude 19:57:16 39° 20° (NNE) 1,198 4.4 -8.8°
Enters shadow 20:02:09 11° 88° (E) 2,295 5.3 -9.5°
